Change the Weather History Date:

Wednesday, October 16, 2013

  Actual Average Record
Temperature  
Mean Temperature 46 °F -  
Max Temperature 58 °F 53 °F 70 °F (1997)
Min Temperature 34 °F 30 °F 12 °F (2004)
Degree Days  
Heating Degree Days 19    
Month to date heating degree days 180  
Moisture  
Dew Point 36 °F    
Average Humidity 70    
Maximum Humidity 92    
Minimum Humidity 47    
Precipitation  
Precipitation 0.00 in - - ()
Month to date precipitation 3.04  
Year to date precipitation 28.60  
Sea Level Pressure  
Sea Level Pressure 29.95 in    
Wind  
Wind Speed 9 mph (WNW)    
Max Wind Speed 15 mph    
Max Gust Speed 20 mph    
Averages and records for this station are not official NWS values.
T = Trace of Precipitation, MM = Missing Value Source: NWS Daily Summary

Daily Weather History Graph

Daily Weather History Graph

Search for Another Location

Airport or City:

Trip Planner

Search our weather history database for the weather conditions in past years. The results will help you decide how hot, cold, wet, or windy it might be!

Date:

Astronomy

Oct. 16, 2013 Rise Set
Actual Time 8:06 AM CDT 6:55 PM CDT
Civil Twilight 7:35 AM CDT 7:26 PM CDT
Nautical Twilight 6:59 AM CDT 8:01 PM CDT
Astronomical Twilight 6:23 AM CDT 8:37 PM CDT
Moon 5:42 PM CDT (10/16) 5:27 AM CDT (10/16)
Length of Visible Light 11h 50m
Length of Day
10h 48m
Waxing Gibbous, 94% of the Moon is Illuminated
Oct 16
Waxing Gibbous
Oct 18
Full
Oct 26
Last Quarter
Nov 3
New
Nov 9
First Quarter

Hourly Weather History & Observations

Time (CDT) Temp. Windchill Dew Point Humidity Pressure Visibility Wind Dir Wind Speed Gust Speed Precip Events Conditions
12:52 AM 37.0 °F 31.6 °F 32.0 °F 82% 30.07 in - West 6.9 mph - N/A   Unknown
1:52 AM 35.1 °F 30.1 °F 32.0 °F 89% 30.06 in - West 5.8 mph - N/A   Unknown
2:52 AM 35.1 °F 30.1 °F 30.9 °F 85% 30.04 in - West 5.8 mph - N/A   Unknown
3:52 AM 37.0 °F 30.4 °F 30.9 °F 79% 30.01 in - West 9.2 mph - N/A   Unknown
4:52 AM 35.1 °F 29.3 °F 30.0 °F 82% 30.00 in - West 6.9 mph - N/A   Unknown
5:52 AM 36.0 °F 29.6 °F 32.0 °F 86% 29.98 in - West 8.1 mph - N/A   Unknown
6:52 AM 36.0 °F 29.6 °F 32.0 °F 86% 29.97 in - West 8.1 mph - N/A   Unknown
7:52 AM 36.0 °F 30.3 °F 32.0 °F 86% 29.96 in - West 6.9 mph - N/A   Unknown
8:52 AM 36.0 °F 30.3 °F 33.1 °F 89% 29.96 in - West 6.9 mph - N/A   Unknown
9:52 AM 42.1 °F 36.6 °F 35.1 °F 76% 29.95 in - West 9.2 mph - N/A   Unknown
10:52 AM 45.0 °F 39.7 °F 36.0 °F 71% 29.94 in - West 10.4 mph - N/A   Unknown
11:52 AM 46.0 °F 41.9 °F 37.0 °F 71% 29.94 in - West 8.1 mph - N/A   Unknown
12:52 PM 52.0 °F - 39.0 °F 61% 29.91 in - West 9.2 mph - N/A   Unknown
1:52 PM 55.9 °F - 37.9 °F 51% 29.89 in - WNW 13.8 mph - N/A   Unknown
2:52 PM 57.9 °F - 37.9 °F 47% 29.88 in - West 11.5 mph - N/A   Unknown
3:52 PM 57.0 °F - 37.9 °F 49% 29.87 in - WNW 12.7 mph - N/A   Unknown
4:52 PM 57.9 °F - 41.0 °F 53% 29.87 in - North 11.5 mph - N/A   Unknown
5:52 PM 55.0 °F - 42.1 °F 62% 29.88 in - NNW 8.1 mph - N/A   Unknown
6:52 PM 52.0 °F - 42.1 °F 69% 29.89 in - North 5.8 mph - N/A   Unknown
7:52 PM 50.0 °F - 42.1 °F 74% 29.91 in - North 8.1 mph - N/A   Unknown
8:52 PM 50.0 °F - 39.0 °F 66% 29.93 in - North 11.5 mph - N/A   Unknown
9:52 PM 46.9 °F - 37.0 °F 68% 29.94 in - North 12.7 mph - N/A   Unknown
10:52 PM 46.0 °F 38.5 °F 37.0 °F 71% 29.95 in - NNW 19.6 mph 25.3 mph N/A   Unknown
11:52 PM 44.1 °F 36.8 °F 37.0 °F 76% 29.97 in - NNW 16.1 mph 25.3 mph N/A   Unknown